User: anonymous   Login
Location: Unspecified
(0.0000°N, 0.0000°E)
Time: 21:04:29
(UTC+00:00)
Language:

STARLINK-11187 [DTC] - Orbit

View from above orbital plane
View from above orbital plane
View from above satellite
View from above satellite

Ground track
Ground track

The orbit is defined by the following mean orbital elements,

1 60184U          26145.26913443 +.00000000 +00000-0 -37076-5 0 00001
2 60184  53.1585 143.6124 0001198  74.7324 285.3826 15.69695036    09
Epoch (UTC): 25 May 2026 06:27:33
Eccentricity: 0.0001198
inclination: 53.1585°
perigee height: 359 km
apogee height: 361 km
right ascension of ascending node: 143.6124°
argument of perigee: 74.7324°
revolutions per day: 15.69695036
mean anomaly at epoch: 285.3826°

The dashed part of the orbit path shows where the satellite is in the earth's shadow,  

DLR